Tracking 18032 objects as of 24-March-2017
HD Live streaming from Space Station
objects crossing your sky now

OSCAR 3

Track OSCAR 3 now!
10-day predictions
OSCAR 3 is classified as:


NORAD ID: 1293
Int'l Code: 1965-016F
Perigee: 887.5 km
Apogee: 914.3 km
Inclination: 70.1 °
Period: 102.9 minutes
Semi major axis: 7271 km
RCS: 0.24 m2 (medium)
Launch date: March 9, 1965
Source: United States (US)
Launch site: AIR FORCE WESTERN TEST RANGE (AFWTR)
Uplink (MHz): 145.975-146.025
Downlink (MHz): 144.325-144.375
Beacon (MHz):
Mode: SSB CW
Call sign:
Status: Inactive

Your satellite tracking list
Your tracking list is empty





NASA's NSSDC Master Catalog

Two Line Element Set (TLE):
1  1293U 65016F   17081.66916788 +.00000235 +00000-0 +17555-3 0  9997
2  1293 070.0745 156.5227 0018414 334.8573 025.1640 14.06151634657691
Source of the keplerian elements: AFSPC